Glasgow, KY

5:20 PM CST on November 11, 2019 (GMT -0600)
Glasgow Municipal

Weather History for KGLW - October, 2019

Change the Weather History Date:

Sunday, October 20, 2019

  Actual Average Record
Temperature  
Mean Temperature 62 °F -  
Max Temperature 71 °F 66 °F 86 °F (1953)
Min Temperature 53 °F 41 °F 26 °F (1964)
Degree Days  
Heating Degree Days 2    
Growing Degree Days 12 (Base 50)    
Moisture  
Dew Point 56 °F    
Average Humidity 88    
Maximum Humidity 100    
Minimum Humidity 57    
Precipitation  
Precipitation 0.01 in - - ()
Sea Level Pressure  
Sea Level Pressure 29.90 in    
Wind  
Wind Speed 0 mph ()    
Max Wind Speed 6 mph    
Max Gust Speed -    
Visibility 8.5 miles    
Events Rain    
Averages and records for this station are not official NWS values.
T = Trace of Precipitation, MM = Missing Value Source: Averaged Metar Reports

Daily Weather History Graph

Daily Weather History Graph

Search for Another Location

Airport or City:

Astronomy

Oct. 20, 2019 Rise Set
Actual Time 6:55 AM CDT 6:00 PM CDT
Civil Twilight 6:29 AM CDT 6:26 PM CDT
Nautical Twilight 5:59 AM CDT 6:57 PM CDT
Astronomical Twilight 5:29 AM CDT 7:27 PM CDT
Moon 11:14 PM CDT (10/20) 1:17 PM CDT (10/20)
Length of Visible Light 11h 57m
Length of Day
11h 04m
Waning Gibbous, 59% of the Moon is Illuminated
Oct 20
Waning Gibbous
Oct 21
Last Quarter
Oct 27
New
Nov 4
First Quarter
Nov 12
Full

Hourly Weather History & Observations

Time (CDT) Temp. Dew Point Humidity Pressure Visibility Wind Dir Wind Speed Gust Speed Precip Events Conditions
12:15 AM 57.2 °F 57.2 °F 100% 29.83 in 3.0 mi Calm Calm - N/A Rain Light Rain
12:35 AM 57.0 °F 57.0 °F 100% 29.83 in 2.5 mi Calm Calm - N/A   Drizzle
12:55 AM 56.7 °F 56.7 °F 100% 29.83 in 4.0 mi Calm Calm - N/A Rain Rain
1:15 AM 56.7 °F 56.7 °F 100% 29.83 in 5.0 mi Calm Calm - N/A   Overcast
1:35 AM 56.5 °F 56.5 °F 100% 29.83 in 10.0 mi Calm Calm - 0.01 in   Overcast
1:55 AM 56.3 °F 56.3 °F 100% 29.84 in 7.0 mi Calm Calm - 0.01 in   Overcast
2:15 AM 56.3 °F 56.3 °F 100% 29.83 in 4.0 mi Calm Calm - N/A   Overcast
2:35 AM 56.3 °F 56.3 °F 100% 29.83 in 10.0 mi Calm Calm - N/A   Overcast
2:50 AM 56.3 °F 56.3 °F 100% 29.83 in 10.0 mi Calm Calm - N/A   Overcast
3:15 AM 56.3 °F 56.3 °F 100% 29.83 in 10.0 mi Calm Calm - N/A   Overcast
3:35 AM 56.3 °F 56.3 °F 100% 29.83 in 10.0 mi Calm Calm - N/A   Overcast
3:55 AM 56.5 °F 56.5 °F 100% 29.83 in 10.0 mi Calm Calm - N/A   Overcast
4:15 AM 56.5 °F 56.5 °F 100% 29.84 in 7.0 mi Calm Calm - N/A   Overcast
4:35 AM 56.5 °F 56.5 °F 100% 29.84 in 7.0 mi Calm Calm - N/A   Overcast
4:55 AM 56.7 °F 56.7 °F 100% 29.85 in 10.0 mi Calm Calm - N/A   Overcast
5:15 AM 56.7 °F 56.7 °F 100% 29.86 in 7.0 mi Calm Calm - N/A   Overcast
5:35 AM 56.7 °F 56.7 °F 100% 29.86 in 7.0 mi Calm Calm - N/A   Overcast
5:55 AM 56.7 °F 56.7 °F 100% 29.86 in 7.0 mi Calm Calm - N/A   Overcast
6:15 AM 56.8 °F 56.8 °F 100% 29.87 in 7.0 mi Calm Calm - N/A   Overcast
6:35 AM 57.0 °F 57.0 °F 100% 29.88 in 3.0 mi Calm Calm - N/A   Overcast
6:55 AM 57.0 °F 57.0 °F 100% 29.88 in 2.5 mi Calm Calm - N/A   Overcast
7:15 AM 57.2 °F 57.2 °F 100% 29.89 in 2.5 mi Calm Calm - N/A   Overcast
7:35 AM 57.2 °F 57.2 °F 100% 29.90 in 2.5 mi Calm Calm - N/A   Overcast
7:55 AM 57.4 °F 57.4 °F 100% 29.91 in 3.0 mi Calm Calm - N/A   Overcast
8:15 AM 57.4 °F 57.4 °F 100% 29.92 in 3.0 mi Calm Calm - N/A   Overcast
8:35 AM 57.7 °F 57.7 °F 100% 29.92 in 5.0 mi Calm Calm - N/A   Overcast
8:55 AM 58.3 °F 58.3 °F 100% 29.93 in 7.0 mi Calm Calm - N/A   Overcast
9:15 AM 59.2 °F 58.6 °F 98% 29.93 in 10.0 mi Calm Calm - N/A   Overcast
9:35 AM 60.1 °F 57.2 °F 90% 29.94 in 10.0 mi Calm Calm - N/A   Overcast
9:55 AM 61.0 °F 57.2 °F 87% 29.94 in 10.0 mi Calm Calm - N/A   Overcast
10:15 AM 61.2 °F 57.0 °F 86% 29.95 in 10.0 mi Calm Calm - N/A   Overcast
10:35 AM 62.1 °F 57.7 °F 86% 29.94 in 10.0 mi Calm Calm - N/A   Overcast
10:55 AM 62.8 °F 57.2 °F 82% 29.94 in 10.0 mi Calm Calm - N/A   Overcast
11:35 AM 64.8 °F 55.9 °F 73% 29.93 in 10.0 mi Calm Calm - N/A   Overcast
11:55 AM 64.4 °F 56.7 °F 76% 29.93 in 10.0 mi Calm Calm - N/A   Overcast
12:15 PM 65.1 °F 56.7 °F 74% 29.93 in 10.0 mi East 5.8 mph - N/A   Overcast
12:35 PM 64.6 °F 56.5 °F 75% 29.93 in 10.0 mi ESE 4.6 mph - N/A   Mostly Cloudy
12:55 PM 67.8 °F 57.0 °F 68% 29.93 in 10.0 mi ESE 5.8 mph - N/A   Scattered Clouds
1:15 PM 65.8 °F 55.9 °F 70% 29.92 in 10.0 mi East 4.6 mph - N/A   Scattered Clouds
1:35 PM 69.8 °F 57.0 °F 64% 29.92 in 10.0 mi ESE 3.5 mph - N/A   Mostly Cloudy
1:55 PM 70.2 °F 56.7 °F 62% 29.91 in 10.0 mi East 3.5 mph - N/A   Scattered Clouds
2:15 PM 70.2 °F 56.5 °F 62% 29.91 in 10.0 mi East 4.6 mph - N/A   Scattered Clouds
2:35 PM 71.4 °F 55.6 °F 57% 29.91 in 10.0 mi East 3.5 mph - N/A   Scattered Clouds
2:55 PM 70.9 °F 55.9 °F 59% 29.91 in 10.0 mi SE 3.5 mph - N/A   Scattered Clouds
3:15 PM 70.7 °F 55.4 °F 58% 29.91 in 10.0 mi Calm Calm - N/A   Clear
3:35 PM 70.9 °F 55.6 °F 58% 29.91 in 10.0 mi Calm Calm - N/A   Clear
3:55 PM 70.9 °F 55.8 °F 59% 29.92 in 10.0 mi Calm Calm - N/A   Clear
4:15 PM 70.5 °F 55.0 °F 58% 29.91 in 10.0 mi Calm Calm - N/A   Clear
4:35 PM 70.0 °F 55.2 °F 59% 29.91 in 10.0 mi Calm Calm - N/A   Clear
4:55 PM 69.8 °F 55.4 °F 60% 29.91 in 10.0 mi East 4.6 mph - N/A   Clear
5:15 PM 69.1 °F 55.6 °F 62% 29.91 in 10.0 mi Calm Calm - N/A   Clear
5:35 PM 68.2 °F 55.6 °F 64% 29.91 in 10.0 mi Calm Calm - N/A   Clear
5:55 PM 65.5 °F 55.6 °F 70% 29.91 in 10.0 mi Calm Calm - N/A   Clear
6:15 PM 61.2 °F 55.2 °F 81% 29.92 in 10.0 mi Calm Calm - N/A   Clear
6:35 PM 61.0 °F 55.6 °F 82% 29.92 in 10.0 mi Calm Calm - N/A   Clear
6:55 PM 59.7 °F 55.4 °F 86% 29.93 in 10.0 mi Calm Calm - N/A   Clear
7:15 PM 59.0 °F 55.4 °F 88% 29.93 in 10.0 mi Calm Calm - N/A   Clear
7:35 PM 58.1 °F 55.9 °F 93% 29.93 in 10.0 mi Calm Calm - N/A   Clear
7:50 PM 58.1 °F 55.4 °F 91% 29.93 in 10.0 mi Calm Calm - N/A   Clear
8:15 PM 56.7 °F 54.9 °F 94% 29.93 in 10.0 mi Calm Calm - N/A   Clear
8:35 PM 56.7 °F 55.6 °F 96% 29.93 in 10.0 mi Calm Calm - N/A   Clear
8:55 PM 56.7 °F 56.5 °F 99% 29.93 in 10.0 mi Calm Calm - N/A   Clear
9:15 PM 56.7 °F 55.8 °F 97% 29.94 in 10.0 mi Calm Calm - N/A   Clear
9:35 PM 55.6 °F 55.6 °F 100% 29.94 in 10.0 mi Calm Calm - N/A   Clear
9:55 PM 55.6 °F 55.6 °F 100% 29.94 in 10.0 mi Calm Calm - N/A   Clear
10:15 PM 55.4 °F 55.4 °F 100% 29.95 in 10.0 mi Calm Calm - N/A   Clear
10:35 PM 55.6 °F 55.6 °F 100% 29.95 in 10.0 mi Calm Calm - N/A   Clear
10:55 PM 54.7 °F 54.7 °F 100% 29.95 in 10.0 mi Calm Calm - N/A   Clear
11:15 PM 54.7 °F 54.7 °F 100% 29.94 in 10.0 mi Calm Calm - N/A   Clear
11:35 PM 54.1 °F 54.1 °F 100% 29.94 in 10.0 mi Calm Calm - N/A   Clear
11:55 PM 53.6 °F 53.6 °F 100% 29.93 in 10.0 mi East 3.5 mph - N/A   Clear